{"data":{"norad_id":40946,"intl_designator":"2015-056A","name":"MORELOS 3","alt_names":[],"object_type":"PAYLOAD","status":"ACTIVE","operator":null,"country":"MEX","launch_date":"2015-10-02","launch_site_code":"AFETR","launch_vehicle":null,"mission":null,"orbit_class":"UNKNOWN","rcs_meters":25.0379,"size_class":null,"mass_kg":null,"dimensions":null,"purposes":["comms"],"wikipedia_slug":null,"has_3d_model":false,"image_url":null,"decayed_at":null,"tle_current":{"epoch":"2026-09-20T00:59:12.702336Z","epoch_age_seconds":61672,"freshness":"FRESH","line1":"1 40946U 15056A   26263.04111924 -.00000045  00000+0  00000+0 0  9999","line2":"2 40946   3.2738  17.3705 0003286 184.5578  58.7231  1.00272250 40232","mean_motion":1.0027225,"eccentricity":0.0003286,"inclination_deg":3.2738,"raan_deg":17.3705,"arg_perigee_deg":184.5578,"mean_anomaly_deg":58.7231,"bstar":0,"rev_number":4023,"period_min":1436.0902443099,"perigee_km":35772.609317227,"apogee_km":35800.319893402,"semimajor_km":42164.601605314,"source":"CELESTRAK","updated_at":"2026-09-20T09:00:35.220174Z"}}}